Regional Weather Roundup
Issued by NWS

Home | Current Version | Previous Version | Text Only | Print | Product List | Glossary Off
Versions: 1 2 3 4 5 6 7 8 9 10 11 12 13 14 15 16 17 18 19 20 21 22 23 24 25 26 27 28 29 30 31 32 33 34 35 36 37 38 39 40 41 42 43 44 45 46 47 48 49 50

000
ASUS43 KLSX 212107
RWRMO

WEATHER SUMMARY FOR MISSOURI
NATIONAL WEATHER SERVICE SPRINGFIELD MO
400 PM CDT FRI JUL 21 2017

NOTE: "FAIR" INDICATES FEW OR NO CLOUDS BELOW 12,000 FEET WITH NO
       SIGNIFICANT WEATHER AND/OR OBSTRUCTIONS TO VISIBILITY.
       CURRENT SKY AND/OR WEATHER CONDITIONS ARE NOT AVAILABLE FOR
       CHILLICOTHE AND FARMINGTON.

MOZ001>031-035>038-043-044-053-054-212200-
...NORTHERN AND WESTERN MISSOURI...

CITY           SKY/WX    TMP DP  RH WIND       PRES   REMARKS
KANSAS CTY INT MOSUNNY   98  75  47 S17       29.86F HX 110
KANSAS C DTWN  SUNNY     97  75  49 S13G23    29.85F HX 109
LEE`S SUMMIT   SUNNY     96  75  50 SW16G28   29.89F HX 108
ST JOSEPH      SUNNY     95  77  55 S16G25    29.82F HX 109
CHILLICOTHE      N/A     94  80  64 S10       29.86F HX 113
KIRKSVILLE     SUNNY     95  76  53 S18G25    29.88F HX 108

$$
MOZ066>068-077>081-088>096-101>105-212200-
...SOUTHWEST MISSOURI...

CITY           SKY/WX    TMP DP  RH WIND       PRES   REMARKS
SPRINGFIELD    MOSUNNY   96  68  39 S17G23    29.97F HX 101
JOPLIN         MOSUNNY   99  70  38 S16G22    29.95F HX 106
BRANSON        MOSUNNY   95  70  43 S6        30.00F HX 101

$$
MOZ032>034-039>042-045>050-055>058-069>072-212200-
...CENTRAL MISSOURI...

CITY           SKY/WX    TMP DP  RH WIND       PRES   REMARKS
COLUMBIA       MOSUNNY   98  71  41 S14       29.92F HX 106
JEFFERSON CITY MOSUNNY   97  71  42 S9        29.90F HX 104
ROLLA          SUNNY     94  73  50 S8        29.95F HX 103
SEDALIA        SUNNY     97  73  45 SW10G21   29.92F HX 107
WHITEMAN AFB   MOSUNNY   98  73  45 S17       29.89F HX 108
WARRENSBURG    SUNNY     97  70  41 S14       29.89F HX 103
OSAGE BEACH    MOSUNNY   99  69  37 W13       29.93F HX 105

$$
MOZ051-052-059>065-212200-
...EAST CENTRAL MISSOURI...

CITY           SKY/WX    TMP DP  RH WIND       PRES   REMARKS
ST LOUIS INTL  MOSUNNY  102  65  29 W12       29.91F HX 105
SPIRIT OF STL  MOSUNNY  100  62  28 W9        29.90F HX 101
ST CHARLES     SUNNY    100  66  32 SW12      29.90F HX 104

$$
MOZ072>076-082>087-097>100-106>115-212200-
...SOUTH CENTRAL AND SOUTHEAST MISSOURI...

CITY           SKY/WX    TMP DP  RH WIND       PRES   REMARKS
CAPE GIRARDEAU MOSUNNY   93  77  59 SW9       29.94F HX 107
FARMINGTON     SUNNY     96  74  48 SE10      29.96F HX 107
POPLAR BLUFF   SUNNY     94  78  60 S8G17     29.95F HX 110
WEST PLAINS    SUNNY     94  69  44 SW12      30.01F HX  99

$$




USA.gov is the U.S. government's official web portal to all federal, state and local government web resources and services.